Tracking 20724 objects as of 2-Jun-2020
HD Live streaming from Space Station
objects crossing your sky now

ONEWEB-0098

Track ONEWEB-0098 now!
10-day predictions
ONEWEB-0098 is classified as:


NORAD ID: 45442
Int'l Code: 2020-020U
Perigee: 584.7 km
Apogee: 622.8 km
Inclination: 87.6 °
Period: 96.6 minutes
Semi major axis: 6974 km
RCS: Unknown
Launch date: March 21, 2020
Source: United Kingdom (UK)
Launch site: TYURATAM MISSILE AND SPACE COMPLEX (TTMTR)
aabbcc
Your satellite tracking list
Your tracking list is empty




NASA's NSSDC Master Catalog

Two Line Element Set (TLE):
1 45442U 20020U   20153.91667824 -.00014913  00000-0 -15282-2 0  9997
2 45442  87.5583 114.6675 0027336  34.2365 305.9839 14.90422027 10897
Source of the keplerian elements: AFSPC